PEGASUS R/B

基本信息
目录编号:
31305
目录名称:
PEGASUS R/B
国际标识:
2007-015B
轨道中心:
EARTH
物体状态:
在轨
发射日期:
2007-04-25 UTC
国别:
美国 (US)
轨道信息
数据来源: 国际轨道数据
星历时间: 2026-09-04T05:04:04+0800
半长轴: 6855.35km
偏心率: 0.001267
轨道倾角: 97.936°
近地点辐角: 52.206°
升交点赤经: 221.175°
平近点角: 308.033°
近地点: 468.527km
远地点: 485.899km
周期: 94.146分钟
每日圈数: 15.295314
详细信息
发射场:
WRAS
轨道高度:
LEO
数据来源:
AOE Integration Group
参考系:
TEME
时间系统:
UTC
历元类型:
SGP4
2D轨道图
3D轨道图
轨道高度分析图
轨道倾角分析图
轨道综合分析图
查看轨道综合分析图